Year,Month,Day,Hour,Minute,Value (Times are PST for temperature in C)
2018,05,23,00,00,13.30
2018,05,23,00,01,13.30
2018,05,23,00,02,13.30
2018,05,23,00,03,13.20
2018,05,23,00,04,13.20
2018,05,23,00,05,13.20
2018,05,23,00,06,13.20
2018,05,23,00,07,13.20
2018,05,23,00,08,13.10
2018,05,23,00,09,13.10
2018,05,23,00,10,13.10
2018,05,23,00,11,13.00
2018,05,23,00,12,13.00
2018,05,23,00,13,13.00
2018,05,23,00,14,12.90
2018,05,23,00,15,12.90
2018,05,23,00,16,12.90
2018,05,23,00,17,12.90
2018,05,23,00,18,12.90
2018,05,23,00,19,12.90
2018,05,23,00,20,12.90
2018,05,23,00,21,12.90
2018,05,23,00,22,12.80
2018,05,23,00,23,12.80
2018,05,23,00,24,12.80
2018,05,23,00,25,12.80
2018,05,23,00,26,12.80
2018,05,23,00,27,12.80
2018,05,23,00,28,12.70
2018,05,23,00,29,12.70
2018,05,23,00,30,12.70
2018,05,23,00,31,12.70
2018,05,23,00,32,12.60
2018,05,23,00,33,12.60
2018,05,23,00,34,12.60
2018,05,23,00,35,12.60
2018,05,23,00,36,12.60
2018,05,23,00,37,12.60
2018,05,23,00,38,12.50
2018,05,23,00,39,12.50
2018,05,23,00,40,12.50
2018,05,23,00,41,12.40
2018,05,23,00,42,12.40
2018,05,23,00,43,12.40
2018,05,23,00,44,12.40
2018,05,23,00,45,12.30
2018,05,23,00,46,12.30
2018,05,23,00,47,12.30
2018,05,23,00,48,12.30
2018,05,23,00,49,12.30
2018,05,23,00,50,12.20
2018,05,23,00,51,12.20
2018,05,23,00,52,12.20
2018,05,23,00,53,12.20
2018,05,23,00,54,12.20
2018,05,23,00,55,12.20
2018,05,23,00,56,12.10
2018,05,23,00,57,12.10
2018,05,23,00,58,12.10
2018,05,23,00,59,12.10
2018,05,23,01,00,12.00
2018,05,23,01,01,12.00
2018,05,23,01,02,12.00
2018,05,23,01,03,12.00
2018,05,23,01,04,12.00
2018,05,23,01,05,12.00
2018,05,23,01,06,11.90
2018,05,23,01,07,11.90
2018,05,23,01,08,11.90
2018,05,23,01,09,11.90
2018,05,23,01,10,11.90
2018,05,23,01,11,11.90
2018,05,23,01,12,11.80
2018,05,23,01,13,11.80
2018,05,23,01,14,11.80
2018,05,23,01,15,11.80
2018,05,23,01,16,11.80
2018,05,23,01,17,11.80
2018,05,23,01,18,11.80
2018,05,23,01,19,11.70
2018,05,23,01,20,11.70
2018,05,23,01,21,11.70
2018,05,23,01,22,11.70
2018,05,23,01,23,11.70
2018,05,23,01,24,11.60
2018,05,23,01,25,11.60
2018,05,23,01,26,11.60
2018,05,23,01,27,11.60
2018,05,23,01,28,11.60
2018,05,23,01,29,11.60
2018,05,23,01,30,11.60
2018,05,23,01,31,11.50
2018,05,23,01,32,11.50
2018,05,23,01,33,11.50
2018,05,23,01,34,11.50
2018,05,23,01,35,11.50
2018,05,23,01,36,11.50
2018,05,23,01,37,11.40
2018,05,23,01,38,11.40
2018,05,23,01,39,11.40
2018,05,23,01,40,11.40
2018,05,23,01,41,11.40
2018,05,23,01,42,11.40
2018,05,23,01,43,11.40
2018,05,23,01,44,11.30
2018,05,23,01,45,11.30
2018,05,23,01,46,11.30
2018,05,23,01,47,11.30
2018,05,23,01,48,11.30
2018,05,23,01,49,11.30
2018,05,23,01,50,11.30
2018,05,23,01,51,11.30
2018,05,23,01,52,11.30
2018,05,23,01,53,11.30
2018,05,23,01,54,11.20
2018,05,23,01,55,11.20
2018,05,23,01,56,11.20
2018,05,23,01,57,11.20
2018,05,23,01,58,11.20
2018,05,23,01,59,11.20
2018,05,23,02,00,11.20
2018,05,23,02,01,11.20
2018,05,23,02,02,11.20
2018,05,23,02,03,11.10
2018,05,23,02,04,11.10
2018,05,23,02,05,11.10
2018,05,23,02,06,11.10
2018,05,23,02,07,11.10
2018,05,23,02,08,11.10
2018,05,23,02,09,11.10
2018,05,23,02,10,11.00
2018,05,23,02,11,11.00
2018,05,23,02,12,11.00
2018,05,23,02,13,11.00
2018,05,23,02,14,10.90
2018,05,23,02,15,10.90
2018,05,23,02,16,10.90
2018,05,23,02,17,10.90
2018,05,23,02,18,10.90
2018,05,23,02,19,10.90
2018,05,23,02,20,10.80
2018,05,23,02,21,10.80
2018,05,23,02,22,10.80
2018,05,23,02,23,10.80
2018,05,23,02,24,10.80
2018,05,23,02,25,10.80
2018,05,23,02,26,10.80
2018,05,23,02,27,10.80
2018,05,23,02,28,10.80
2018,05,23,02,29,10.70
2018,05,23,02,30,10.70
2018,05,23,02,31,10.70
2018,05,23,02,32,10.70
2018,05,23,02,33,10.70
2018,05,23,02,34,10.70
2018,05,23,02,35,10.70
2018,05,23,02,36,10.70
2018,05,23,02,37,10.70
2018,05,23,02,38,10.60
2018,05,23,02,39,10.60
2018,05,23,02,40,10.60
2018,05,23,02,41,10.60
2018,05,23,02,42,10.60
2018,05,23,02,43,10.60
2018,05,23,02,44,10.60
2018,05,23,02,45,10.50
2018,05,23,02,46,10.50
2018,05,23,02,47,10.50
2018,05,23,02,48,10.50
2018,05,23,02,49,10.50
2018,05,23,02,50,10.50
2018,05,23,02,51,10.40
2018,05,23,02,52,10.40
2018,05,23,02,53,10.40
2018,05,23,02,54,10.40
2018,05,23,02,55,10.40
2018,05,23,02,56,10.40
2018,05,23,02,57,10.40
2018,05,23,02,58,10.40
2018,05,23,02,59,10.30
2018,05,23,03,00,10.30
2018,05,23,03,01,10.30
2018,05,23,03,02,10.30
2018,05,23,03,03,10.30
2018,05,23,03,04,10.30
2018,05,23,03,05,10.30
2018,05,23,03,06,10.30
2018,05,23,03,07,10.30
2018,05,23,03,08,10.30
2018,05,23,03,09,10.30
2018,05,23,03,10,10.30
2018,05,23,03,11,10.20
2018,05,23,03,12,10.20
2018,05,23,03,13,10.20
2018,05,23,03,14,10.20
2018,05,23,03,15,10.20
2018,05,23,03,16,10.20
2018,05,23,03,17,10.20
2018,05,23,03,18,10.20
2018,05,23,03,19,10.20
2018,05,23,03,20,10.20
2018,05,23,03,21,10.20
2018,05,23,03,22,10.10
2018,05,23,03,23,10.10
2018,05,23,03,24,10.10
2018,05,23,03,25,10.10
2018,05,23,03,26,10.10
2018,05,23,03,27,10.10
2018,05,23,03,28,10.10
2018,05,23,03,29,10.10
2018,05,23,03,30,10.10
2018,05,23,03,31,10.10
2018,05,23,03,32,10.10
2018,05,23,03,33,10.10
2018,05,23,03,34,10.10
2018,05,23,03,35,10.10
2018,05,23,03,36,10.10
2018,05,23,03,37,10.10
2018,05,23,03,38,10.00
2018,05,23,03,39,10.00
2018,05,23,03,40,10.00
2018,05,23,03,41,10.00
2018,05,23,03,42,10.00
2018,05,23,03,43,10.00
2018,05,23,03,44,10.00
2018,05,23,03,45,10.00
2018,05,23,03,46,9.90
2018,05,23,03,47,9.90
2018,05,23,03,48,9.90
2018,05,23,03,49,9.90
2018,05,23,03,50,9.90
2018,05,23,03,51,9.90
2018,05,23,03,52,9.90
2018,05,23,03,53,9.80
2018,05,23,03,54,9.80
2018,05,23,03,55,9.80
2018,05,23,03,56,9.80
2018,05,23,03,57,9.80
2018,05,23,03,58,9.80
2018,05,23,03,59,9.80
2018,05,23,04,00,9.80
2018,05,23,04,01,9.80
2018,05,23,04,02,9.80
2018,05,23,04,03,9.80
2018,05,23,04,04,9.80
2018,05,23,04,05,9.80
2018,05,23,04,06,9.80
2018,05,23,04,07,9.80
2018,05,23,04,08,9.70
2018,05,23,04,09,9.70
2018,05,23,04,10,9.70
2018,05,23,04,11,9.70
2018,05,23,04,12,9.70
2018,05,23,04,13,9.70
2018,05,23,04,14,9.70
2018,05,23,04,15,9.70
2018,05,23,04,16,9.70
2018,05,23,04,17,9.70
2018,05,23,04,18,9.70
2018,05,23,04,19,9.70
2018,05,23,04,20,9.60
2018,05,23,04,21,9.60
2018,05,23,04,22,9.60
2018,05,23,04,23,9.60
2018,05,23,04,24,9.60
2018,05,23,04,25,9.60
2018,05,23,04,26,9.60
2018,05,23,04,27,9.60
2018,05,23,04,28,9.60
2018,05,23,04,29,9.60
2018,05,23,04,30,9.60
2018,05,23,04,31,9.60
2018,05,23,04,32,9.60
2018,05,23,04,33,9.50
2018,05,23,04,34,9.50
2018,05,23,04,35,9.50
2018,05,23,04,36,9.50
2018,05,23,04,37,9.50
2018,05,23,04,38,9.50
2018,05,23,04,39,9.50
2018,05,23,04,40,9.50
2018,05,23,04,41,9.40
2018,05,23,04,42,9.50
2018,05,23,04,43,9.40
2018,05,23,04,44,9.40
2018,05,23,04,45,9.40
2018,05,23,04,46,9.40
2018,05,23,04,47,9.40
2018,05,23,04,48,9.40
2018,05,23,04,49,9.40
2018,05,23,04,50,9.40
2018,05,23,04,51,9.40
2018,05,23,04,52,9.40
2018,05,23,04,53,9.40
2018,05,23,04,54,9.40
2018,05,23,04,55,9.30
2018,05,23,04,56,9.30
2018,05,23,04,57,9.30
2018,05,23,04,58,9.30
2018,05,23,04,59,9.30
2018,05,23,05,00,9.30
2018,05,23,05,01,9.30
2018,05,23,05,02,9.30
2018,05,23,05,03,9.30
2018,05,23,05,04,9.30
2018,05,23,05,05,9.30
2018,05,23,05,06,9.30
2018,05,23,05,07,9.30
2018,05,23,05,08,9.30
2018,05,23,05,09,9.30
2018,05,23,05,10,9.30
2018,05,23,05,11,9.20
2018,05,23,05,12,9.20
2018,05,23,05,13,9.20
2018,05,23,05,14,9.20
2018,05,23,05,15,9.20
2018,05,23,05,16,9.20
2018,05,23,05,17,9.20
2018,05,23,05,18,9.20
2018,05,23,05,19,9.20
2018,05,23,05,20,9.20
2018,05,23,05,21,9.20
2018,05,23,05,22,9.20
2018,05,23,05,23,9.20
2018,05,23,05,24,9.20
2018,05,23,05,25,9.20
2018,05,23,05,26,9.20
2018,05,23,05,27,9.20
2018,05,23,05,28,9.20
2018,05,23,05,29,9.10
2018,05,23,05,30,9.10
2018,05,23,05,31,9.10
2018,05,23,05,32,9.10
2018,05,23,05,33,9.10
2018,05,23,05,34,9.10
2018,05,23,05,35,9.10
2018,05,23,05,36,9.10
2018,05,23,05,37,9.10
2018,05,23,05,38,9.10
2018,05,23,05,39,9.10
2018,05,23,05,40,9.10
2018,05,23,05,41,9.10
2018,05,23,05,42,9.10
2018,05,23,05,43,9.10
2018,05,23,05,44,9.10
2018,05,23,05,45,9.10
2018,05,23,05,46,9.10
2018,05,23,05,47,9.10
2018,05,23,05,48,9.10
2018,05,23,05,49,9.10
2018,05,23,05,50,9.10
2018,05,23,05,51,9.10
2018,05,23,05,52,9.10
2018,05,23,05,53,9.10
2018,05,23,05,54,9.10
2018,05,23,05,55,9.10
2018,05,23,05,56,9.10
2018,05,23,05,57,9.10
2018,05,23,05,58,9.10
2018,05,23,05,59,9.10
2018,05,23,06,00,9.10
2018,05,23,06,01,9.10
2018,05,23,06,02,9.10
2018,05,23,06,03,9.10
2018,05,23,06,04,9.10
2018,05,23,06,05,9.10
2018,05,23,06,06,9.10
2018,05,23,06,07,9.10
2018,05,23,06,08,9.10
2018,05,23,06,09,9.10
2018,05,23,06,10,9.10
2018,05,23,06,11,9.10
2018,05,23,06,12,9.10
2018,05,23,06,13,9.10
2018,05,23,06,14,9.10
2018,05,23,06,15,9.10
2018,05,23,06,16,9.10
2018,05,23,06,17,9.10
2018,05,23,06,18,9.10
2018,05,23,06,19,9.10
2018,05,23,06,20,9.10
2018,05,23,06,21,9.10
2018,05,23,06,22,9.10
2018,05,23,06,23,9.10
2018,05,23,06,24,9.10
2018,05,23,06,25,9.10
2018,05,23,06,26,9.10
2018,05,23,06,27,9.10
2018,05,23,06,28,9.10
2018,05,23,06,29,9.10
2018,05,23,06,30,9.10
2018,05,23,06,31,9.10
2018,05,23,06,32,9.10
2018,05,23,06,33,9.10
2018,05,23,06,34,9.10
2018,05,23,06,35,9.10
2018,05,23,06,36,9.10
2018,05,23,06,37,9.10
2018,05,23,06,38,9.10
2018,05,23,06,39,9.10
2018,05,23,06,40,9.10
2018,05,23,06,41,9.10
2018,05,23,06,42,9.10
2018,05,23,06,43,9.10
2018,05,23,06,44,9.10
2018,05,23,06,45,9.20
2018,05,23,06,46,9.20
2018,05,23,06,47,9.20
2018,05,23,06,48,9.20
2018,05,23,06,49,9.20
2018,05,23,06,50,9.20
2018,05,23,06,51,9.20
2018,05,23,06,52,9.30
2018,05,23,06,53,9.30
2018,05,23,06,54,9.40
2018,05,23,06,55,9.40
2018,05,23,06,56,9.50
2018,05,23,06,57,9.60
2018,05,23,06,58,9.70
2018,05,23,06,59,9.80
2018,05,23,07,00,9.80
2018,05,23,07,01,9.90
2018,05,23,07,02,9.90
2018,05,23,07,03,9.90
2018,05,23,07,04,9.90
2018,05,23,07,05,9.90
2018,05,23,07,06,9.90
2018,05,23,07,07,9.90
2018,05,23,07,08,9.90
2018,05,23,07,09,9.90
2018,05,23,07,10,10.00
2018,05,23,07,11,10.00
2018,05,23,07,12,10.10
2018,05,23,07,13,10.10
2018,05,23,07,14,10.20
2018,05,23,07,15,10.20
2018,05,23,07,16,10.20
2018,05,23,07,17,10.30
2018,05,23,07,18,10.40
2018,05,23,07,19,10.50
2018,05,23,07,20,10.60
2018,05,23,07,21,10.80
2018,05,23,07,22,10.90
2018,05,23,07,23,11.00
2018,05,23,07,24,11.10
2018,05,23,07,25,11.20
2018,05,23,07,26,11.30
2018,05,23,07,27,11.30
2018,05,23,07,28,11.40
2018,05,23,07,29,11.50
2018,05,23,07,30,11.50
2018,05,23,07,31,11.60
2018,05,23,07,32,11.60
2018,05,23,07,33,11.70
2018,05,23,07,34,11.80
2018,05,23,07,35,11.90
2018,05,23,07,36,11.90
2018,05,23,07,37,12.00
2018,05,23,07,38,12.10
2018,05,23,07,39,12.20
2018,05,23,07,40,12.30
2018,05,23,07,41,12.40
2018,05,23,07,42,12.50
2018,05,23,07,43,12.60
2018,05,23,07,44,12.70
2018,05,23,07,45,12.80
2018,05,23,07,46,12.80
2018,05,23,07,47,12.90
2018,05,23,07,48,13.00
2018,05,23,07,49,13.10
2018,05,23,07,50,13.10
2018,05,23,07,51,13.10
2018,05,23,07,52,13.20
2018,05,23,07,53,13.20
2018,05,23,07,54,13.30
2018,05,23,07,55,13.40
2018,05,23,07,56,13.50
2018,05,23,07,57,13.60
2018,05,23,07,58,13.60
2018,05,23,07,59,13.60
2018,05,23,08,00,13.70
2018,05,23,08,01,13.70
2018,05,23,08,02,13.80
2018,05,23,08,03,13.80
2018,05,23,08,04,13.80
2018,05,23,08,05,13.90
2018,05,23,08,06,13.90
2018,05,23,08,07,13.80
2018,05,23,08,08,13.80
2018,05,23,08,09,13.80
2018,05,23,08,10,13.80
2018,05,23,08,11,13.70
2018,05,23,08,12,13.70
2018,05,23,08,13,13.70
2018,05,23,08,14,13.70
2018,05,23,08,15,13.70
2018,05,23,08,16,13.70
2018,05,23,08,17,13.80
2018,05,23,08,18,13.80
2018,05,23,08,19,13.80
2018,05,23,08,20,13.80
2018,05,23,08,21,13.80
2018,05,23,08,22,13.90
2018,05,23,08,23,13.90
2018,05,23,08,24,14.00
2018,05,23,08,25,14.00
2018,05,23,08,26,14.10
2018,05,23,08,27,14.20
2018,05,23,08,28,14.20
2018,05,23,08,29,14.30
2018,05,23,08,30,14.40
2018,05,23,08,31,14.40
2018,05,23,08,32,14.50
2018,05,23,08,33,14.60
2018,05,23,08,34,14.60
2018,05,23,08,35,14.70
2018,05,23,08,36,14.70
2018,05,23,08,37,14.70
2018,05,23,08,38,14.60
2018,05,23,08,39,14.60
2018,05,23,08,40,14.60
2018,05,23,08,41,14.60
2018,05,23,08,42,14.60
2018,05,23,08,43,14.60
2018,05,23,08,44,14.60
2018,05,23,08,45,14.70
2018,05,23,08,46,14.70
2018,05,23,08,47,14.70
2018,05,23,08,48,14.80
2018,05,23,08,49,14.80
2018,05,23,08,50,14.80
2018,05,23,08,51,14.90
2018,05,23,08,52,14.90
2018,05,23,08,53,14.90
2018,05,23,08,54,15.00
2018,05,23,08,55,15.10
2018,05,23,08,56,15.10
2018,05,23,08,57,15.20
2018,05,23,08,58,15.30
2018,05,23,08,59,15.30
2018,05,23,09,00,15.40
2018,05,23,09,01,15.50
2018,05,23,09,02,15.60
2018,05,23,09,03,15.60
2018,05,23,09,04,15.60
2018,05,23,09,05,15.60
2018,05,23,09,06,15.70
2018,05,23,09,07,15.70
2018,05,23,09,08,15.70
2018,05,23,09,09,15.70
2018,05,23,09,10,15.70
2018,05,23,09,11,15.80
2018,05,23,09,12,15.80
2018,05,23,09,13,15.80
2018,05,23,09,14,15.90
2018,05,23,09,15,16.00
2018,05,23,09,16,16.10
2018,05,23,09,17,16.10
2018,05,23,09,18,16.20
2018,05,23,09,19,16.20
2018,05,23,09,20,16.20
2018,05,23,09,21,16.30
2018,05,23,09,22,16.30
2018,05,23,09,23,16.30
2018,05,23,09,24,16.30
2018,05,23,09,25,16.40
2018,05,23,09,26,16.50
2018,05,23,09,27,16.50
2018,05,23,09,28,16.60
2018,05,23,09,29,16.70
2018,05,23,09,30,16.70
2018,05,23,09,31,16.80
2018,05,23,09,32,16.80
2018,05,23,09,33,16.80
2018,05,23,09,34,16.90
2018,05,23,09,35,17.00
2018,05,23,09,36,17.20
2018,05,23,09,37,17.30
2018,05,23,09,38,17.50
2018,05,23,09,39,17.60
2018,05,23,09,40,17.60
2018,05,23,09,41,17.70
2018,05,23,09,42,17.80
2018,05,23,09,43,17.80
2018,05,23,09,44,17.80
2018,05,23,09,45,17.90
2018,05,23,09,46,18.00
2018,05,23,09,47,18.00
2018,05,23,09,48,18.00
2018,05,23,09,49,18.00
2018,05,23,09,50,18.00
2018,05,23,09,51,18.10
2018,05,23,09,52,18.10
2018,05,23,09,53,18.20
2018,05,23,09,54,18.20
2018,05,23,09,55,18.20
2018,05,23,09,56,18.20
2018,05,23,09,57,18.30
2018,05,23,09,58,18.30
2018,05,23,09,59,18.30
2018,05,23,10,00,18.30
2018,05,23,10,01,18.30
2018,05,23,10,02,18.30
2018,05,23,10,03,18.30
2018,05,23,10,04,18.20
2018,05,23,10,05,18.30
2018,05,23,10,06,18.30
2018,05,23,10,07,18.40
2018,05,23,10,08,18.40
2018,05,23,10,09,18.50
2018,05,23,10,10,18.60
2018,05,23,10,11,18.70
2018,05,23,10,12,18.80
2018,05,23,10,13,18.80
2018,05,23,10,14,18.80
2018,05,23,10,15,18.80
2018,05,23,10,16,18.80
2018,05,23,10,17,18.80
2018,05,23,10,18,18.80
2018,05,23,10,19,18.90
2018,05,23,10,20,18.90
2018,05,23,10,21,19.00
2018,05,23,10,22,19.00
2018,05,23,10,23,19.10
2018,05,23,10,24,19.20
2018,05,23,10,25,19.20
2018,05,23,10,26,19.20
2018,05,23,10,27,19.20
2018,05,23,10,28,19.20
2018,05,23,10,29,19.30
2018,05,23,10,30,19.30
2018,05,23,10,31,19.30
2018,05,23,10,32,19.40
2018,05,23,10,33,19.40
2018,05,23,10,34,19.40
2018,05,23,10,35,19.40
2018,05,23,10,36,19.40
2018,05,23,10,37,19.50
2018,05,23,10,38,19.60
2018,05,23,10,39,19.60
2018,05,23,10,40,19.60
2018,05,23,10,41,19.60
2018,05,23,10,42,19.70
2018,05,23,10,43,19.70
2018,05,23,10,44,19.80
2018,05,23,10,45,19.80
2018,05,23,10,46,19.80
2018,05,23,10,47,19.90
2018,05,23,10,48,20.00
2018,05,23,10,49,20.10
2018,05,23,10,50,20.20
2018,05,23,10,51,20.30
2018,05,23,10,52,20.40
2018,05,23,10,53,20.60
2018,05,23,10,54,20.70
2018,05,23,10,55,20.90
2018,05,23,10,56,21.10
2018,05,23,10,57,21.20
2018,05,23,10,58,21.30
2018,05,23,10,59,21.30
2018,05,23,11,00,21.30
2018,05,23,11,01,21.30
2018,05,23,11,02,21.30
2018,05,23,11,03,21.30
2018,05,23,11,04,21.30
2018,05,23,11,05,21.30
2018,05,23,11,06,21.40
2018,05,23,11,07,21.40
2018,05,23,11,08,21.40
2018,05,23,11,09,21.50
2018,05,23,11,10,21.60
2018,05,23,11,11,21.60
2018,05,23,11,12,21.70
2018,05,23,11,13,21.80
2018,05,23,11,14,21.80
2018,05,23,11,15,21.90
2018,05,23,11,16,22.00
2018,05,23,11,17,22.10
2018,05,23,11,18,22.10
2018,05,23,11,19,22.10
2018,05,23,11,20,22.10
2018,05,23,11,21,22.20
2018,05,23,11,22,22.30
2018,05,23,11,23,22.30
2018,05,23,11,24,22.30
2018,05,23,11,25,22.30
2018,05,23,11,26,22.30
2018,05,23,11,27,22.20
2018,05,23,11,28,22.10
2018,05,23,11,29,22.10
2018,05,23,11,30,22.10
2018,05,23,11,31,22.10
2018,05,23,11,32,22.10
2018,05,23,11,33,22.10
2018,05,23,11,34,22.10
2018,05,23,11,35,22.10
2018,05,23,11,36,22.10
2018,05,23,11,37,22.00
2018,05,23,11,38,22.00
2018,05,23,11,39,21.90
2018,05,23,11,40,22.00
2018,05,23,11,41,22.10
2018,05,23,11,42,22.10
2018,05,23,11,43,22.20
2018,05,23,11,44,22.20
2018,05,23,11,45,22.20
2018,05,23,11,46,22.30
2018,05,23,11,47,22.20
2018,05,23,11,48,22.30
2018,05,23,11,49,22.30
2018,05,23,11,50,22.30
2018,05,23,11,51,22.30
2018,05,23,11,52,22.30
2018,05,23,11,53,22.40
2018,05,23,11,54,22.40
2018,05,23,11,55,22.40
2018,05,23,11,56,22.50
2018,05,23,11,57,22.50
2018,05,23,11,58,22.40
2018,05,23,11,59,22.40
2018,05,23,12,00,22.30
2018,05,23,12,01,22.30
2018,05,23,12,02,22.30
2018,05,23,12,03,22.30
2018,05,23,12,04,22.40
2018,05,23,12,05,22.50
2018,05,23,12,06,22.50
2018,05,23,12,07,22.40
2018,05,23,12,08,22.40
2018,05,23,12,09,22.40
2018,05,23,12,10,22.50
2018,05,23,12,11,22.60
2018,05,23,12,12,22.60
2018,05,23,12,13,22.60
2018,05,23,12,14,22.60
2018,05,23,12,15,22.60
2018,05,23,12,16,22.70
2018,05,23,12,17,22.70
2018,05,23,12,18,22.70
2018,05,23,12,19,22.70
2018,05,23,12,20,22.80
2018,05,23,12,21,22.90
2018,05,23,12,22,22.90
2018,05,23,12,23,23.00
2018,05,23,12,24,23.00
2018,05,23,12,25,23.00
2018,05,23,12,26,23.00
2018,05,23,12,27,23.00
2018,05,23,12,28,23.00
2018,05,23,12,29,23.10
2018,05,23,12,30,23.30
2018,05,23,12,31,23.40
2018,05,23,12,32,23.50
2018,05,23,12,33,23.50
2018,05,23,12,34,23.50
2018,05,23,12,35,23.50
2018,05,23,12,36,23.50
2018,05,23,12,37,23.50
2018,05,23,12,38,23.60
2018,05,23,12,39,23.60
2018,05,23,12,40,23.80
2018,05,23,12,41,23.80
2018,05,23,12,42,23.80
2018,05,23,12,43,23.80
2018,05,23,12,44,23.90
2018,05,23,12,45,23.80
2018,05,23,12,46,23.80
2018,05,23,12,47,23.70
2018,05,23,12,48,23.70
2018,05,23,12,49,23.70
2018,05,23,12,50,23.60
2018,05,23,12,51,23.60
2018,05,23,12,52,23.60
2018,05,23,12,53,23.70
2018,05,23,12,54,23.80
2018,05,23,12,55,23.90
2018,05,23,12,56,24.00
2018,05,23,12,57,24.00
2018,05,23,12,58,24.00
2018,05,23,12,59,24.00
2018,05,23,13,00,24.00
2018,05,23,13,01,24.10
2018,05,23,13,02,24.00
2018,05,23,13,03,23.90
2018,05,23,13,04,23.80
2018,05,23,13,05,23.80
2018,05,23,13,06,23.90
2018,05,23,13,07,23.90
2018,05,23,13,08,24.00
2018,05,23,13,09,24.10
2018,05,23,13,10,24.10
2018,05,23,13,11,24.10
2018,05,23,13,12,24.20
2018,05,23,13,13,24.40
2018,05,23,13,14,24.40
2018,05,23,13,15,24.50
2018,05,23,13,16,24.60
2018,05,23,13,17,24.70
2018,05,23,13,18,24.80
2018,05,23,13,19,24.90
2018,05,23,13,20,25.00
2018,05,23,13,21,25.10
2018,05,23,13,22,25.20
2018,05,23,13,23,25.10
2018,05,23,13,24,25.20
2018,05,23,13,25,25.20
2018,05,23,13,26,25.20
2018,05,23,13,27,25.20
2018,05,23,13,28,25.20
2018,05,23,13,29,25.20
2018,05,23,13,30,25.10
2018,05,23,13,31,25.10
2018,05,23,13,32,25.00
2018,05,23,13,33,24.90
2018,05,23,13,34,24.90
2018,05,23,13,35,24.80
2018,05,23,13,36,24.80
2018,05,23,13,37,24.90
2018,05,23,13,38,24.90
2018,05,23,13,39,24.90
2018,05,23,13,40,24.90
2018,05,23,13,41,25.00
2018,05,23,13,42,25.10
2018,05,23,13,43,25.10
2018,05,23,13,44,25.20
2018,05,23,13,45,25.20
2018,05,23,13,46,25.10
2018,05,23,13,47,25.00
2018,05,23,13,48,25.00
2018,05,23,13,49,24.90
2018,05,23,13,50,24.90
2018,05,23,13,51,24.80
2018,05,23,13,52,24.80
2018,05,23,13,53,24.90
2018,05,23,13,54,24.90
2018,05,23,13,55,24.90
2018,05,23,13,56,25.00
2018,05,23,13,57,25.00
2018,05,23,13,58,25.10
2018,05,23,13,59,25.00
2018,05,23,14,00,25.00
2018,05,23,14,01,25.00
2018,05,23,14,02,25.00
2018,05,23,14,03,25.00
2018,05,23,14,04,25.00
2018,05,23,14,05,25.10
2018,05,23,14,06,25.10
2018,05,23,14,07,25.10
2018,05,23,14,08,25.10
2018,05,23,14,09,25.20
2018,05,23,14,10,25.20
2018,05,23,14,11,25.20
2018,05,23,14,12,25.20
2018,05,23,14,13,25.20
2018,05,23,14,14,25.10
2018,05,23,14,15,25.10
2018,05,23,14,16,25.10
2018,05,23,14,17,25.00
2018,05,23,14,18,25.00
2018,05,23,14,19,25.10
2018,05,23,14,20,25.20
2018,05,23,14,21,25.10
2018,05,23,14,22,25.10
2018,05,23,14,23,25.00
2018,05,23,14,24,24.90
2018,05,23,14,25,25.00
2018,05,23,14,26,25.10
2018,05,23,14,27,25.10
2018,05,23,14,28,25.20
2018,05,23,14,29,25.20
2018,05,23,14,30,25.20
2018,05,23,14,31,25.20
2018,05,23,14,32,25.20
2018,05,23,14,33,25.20
2018,05,23,14,34,25.10
2018,05,23,14,35,25.10
2018,05,23,14,36,25.10
2018,05,23,14,37,25.10
2018,05,23,14,38,25.10
2018,05,23,14,39,25.10
2018,05,23,14,40,25.00
2018,05,23,14,41,24.90
2018,05,23,14,42,24.80
2018,05,23,14,43,24.70
2018,05,23,14,44,24.70
2018,05,23,14,45,24.70
2018,05,23,14,46,24.70
2018,05,23,14,47,24.70
2018,05,23,14,48,24.70
2018,05,23,14,49,24.70
2018,05,23,14,50,24.60
2018,05,23,14,51,24.60
2018,05,23,14,52,24.60
2018,05,23,14,53,24.60
2018,05,23,14,54,24.60
2018,05,23,14,55,24.50
2018,05,23,14,56,24.60
2018,05,23,14,57,24.60
2018,05,23,14,58,24.60
2018,05,23,14,59,24.60
2018,05,23,15,00,24.50
2018,05,23,15,01,24.50
2018,05,23,15,02,24.50
2018,05,23,15,03,24.50
2018,05,23,15,04,24.50
2018,05,23,15,05,24.40
2018,05,23,15,06,24.40
2018,05,23,15,07,24.30
2018,05,23,15,08,24.30
2018,05,23,15,09,24.30
2018,05,23,15,10,24.30
2018,05,23,15,11,24.30
2018,05,23,15,12,24.30
2018,05,23,15,13,24.30
2018,05,23,15,14,24.30
2018,05,23,15,15,24.40
2018,05,23,15,16,24.40
2018,05,23,15,17,24.30
2018,05,23,15,18,24.20
2018,05,23,15,19,24.20
2018,05,23,15,20,24.20
2018,05,23,15,21,24.10
2018,05,23,15,22,24.10
2018,05,23,15,23,24.00
2018,05,23,15,24,23.90
2018,05,23,15,25,23.80
2018,05,23,15,26,23.80
2018,05,23,15,27,23.80
2018,05,23,15,28,23.80
2018,05,23,15,29,23.70
2018,05,23,15,30,23.70
2018,05,23,15,31,23.70
2018,05,23,15,32,23.60
2018,05,23,15,33,23.50
2018,05,23,15,34,23.50
2018,05,23,15,35,23.40
2018,05,23,15,36,23.40
2018,05,23,15,37,23.30
2018,05,23,15,38,23.20
2018,05,23,15,39,23.20
2018,05,23,15,40,23.20
2018,05,23,15,41,23.10
2018,05,23,15,42,23.10
2018,05,23,15,43,23.10
2018,05,23,15,44,23.00
2018,05,23,15,45,23.00
2018,05,23,15,46,23.00
2018,05,23,15,47,23.00
2018,05,23,15,48,23.00
2018,05,23,15,49,23.00
2018,05,23,15,50,22.90
2018,05,23,15,51,22.90
2018,05,23,15,52,22.90
2018,05,23,15,53,22.90
2018,05,23,15,54,22.90
2018,05,23,15,55,22.90
2018,05,23,15,56,22.90
2018,05,23,15,57,22.80
2018,05,23,15,58,22.80
2018,05,23,15,59,22.80
2018,05,23,16,00,22.80
2018,05,23,16,01,22.80
2018,05,23,16,02,22.80
2018,05,23,16,03,22.70
2018,05,23,16,04,22.60
2018,05,23,16,05,22.60
2018,05,23,16,06,22.60
2018,05,23,16,07,22.50
2018,05,23,16,08,22.40
2018,05,23,16,09,22.30
2018,05,23,16,10,22.20
2018,05,23,16,11,22.20
2018,05,23,16,12,22.20
2018,05,23,16,13,22.10
2018,05,23,16,14,22.10
2018,05,23,16,15,22.00
2018,05,23,16,16,21.90
2018,05,23,16,17,21.90
2018,05,23,16,18,21.90
2018,05,23,16,19,21.90
2018,05,23,16,20,21.90
2018,05,23,16,21,21.80
2018,05,23,16,22,21.80
2018,05,23,16,23,21.70
2018,05,23,16,24,21.70
2018,05,23,16,25,21.70
2018,05,23,16,26,21.70
2018,05,23,16,27,21.60
2018,05,23,16,28,21.60
2018,05,23,16,29,21.50
2018,05,23,16,30,21.40
2018,05,23,16,31,21.40
2018,05,23,16,32,21.30
2018,05,23,16,33,21.30
2018,05,23,16,34,21.30
2018,05,23,16,35,21.40
2018,05,23,16,36,21.40
2018,05,23,16,37,21.40
2018,05,23,16,38,21.40
2018,05,23,16,39,21.40
2018,05,23,16,40,21.50
2018,05,23,16,41,21.50
2018,05,23,16,42,21.50
2018,05,23,16,43,21.50
2018,05,23,16,44,21.50
2018,05,23,16,45,21.50
2018,05,23,16,46,21.50
2018,05,23,16,47,21.50
2018,05,23,16,48,21.40
2018,05,23,16,49,21.40
2018,05,23,16,50,21.40
2018,05,23,16,51,21.40
2018,05,23,16,52,21.40
2018,05,23,16,53,21.40
2018,05,23,16,54,21.40
2018,05,23,16,55,21.40
2018,05,23,16,56,21.30
2018,05,23,16,57,21.30
2018,05,23,16,58,21.30
2018,05,23,16,59,21.20
2018,05,23,17,00,21.20
2018,05,23,17,01,21.10
2018,05,23,17,02,21.10
2018,05,23,17,03,21.20
2018,05,23,17,04,21.10
2018,05,23,17,05,21.10
2018,05,23,17,06,21.10
2018,05,23,17,07,21.10
2018,05,23,17,08,21.10
2018,05,23,17,09,21.10
2018,05,23,17,10,21.10
2018,05,23,17,11,21.10
2018,05,23,17,12,21.10
2018,05,23,17,13,21.10
2018,05,23,17,14,21.10
2018,05,23,17,15,21.10
2018,05,23,17,16,21.10
2018,05,23,17,17,21.20
2018,05,23,17,18,21.20
2018,05,23,17,19,21.10
2018,05,23,17,20,21.10
2018,05,23,17,21,21.10
2018,05,23,17,22,21.10
2018,05,23,17,23,21.00
2018,05,23,17,24,21.00
2018,05,23,17,25,21.00
2018,05,23,17,26,20.90
2018,05,23,17,27,20.80
2018,05,23,17,28,20.70